• In Hungary
  • List of Countries
  • For 7 days
  • Water Temperature
  • Satellite Maps
  • Weather Map
  • News
  • Weather Widgets
  • user-avatar
    Login

    Hourly Weather Chlewnica

    Today, 23 July, Monday

    Time Temperature Precipitation Wind Pressure Humidity
    00:00 +18°C° 0 mm 1 mps 752 mmHg 73%
    01:00 +17°C° 0 mm 2 mps 752 mmHg 73%
    02:00 +16°C° 0 mm 2 mps 752 mmHg 72%
    03:00 +16°C° 0 mm 2 mps 752 mmHg 72%
    04:00 +16°C° 0 mm 2 mps 752 mmHg 71%
    05:00 +18°C° 0 mm 2 mps 752 mmHg 67%
    06:00 +20°C° 0 mm 2 mps 752 mmHg 63%
    07:00 +21°C° 0 mm 2 mps 752 mmHg 59%
    08:00 +24°C° 0 mm 2 mps 752 mmHg 54%
    09:00 +26°C° 0 mm 2 mps 752 mmHg 49%
    10:00 +27°C° 0 mm 1 mps 753 mmHg 44%
    11:00 +28°C° 0 mm 2 mps 753 mmHg 45%
    12:00 +28°C° 0 mm 2 mps 752 mmHg 45%
    13:00 +29°C° 0 mm 2 mps 752 mmHg 45%
    14:00 +28°C° 0.1 mm 3 mps 752 mmHg 49%
    15:00 +27°C° 0.1 mm 3 mps 752 mmHg 53%
    16:00 +27°C° 0.1 mm 3 mps 752 mmHg 57%
    17:00 +25°C° 0 mm 3 mps 752 mmHg 63%
    18:00 +24°C° 0 mm 3 mps 752 mmHg 69%
    19:00 +23°C° 0 mm 2 mps 752 mmHg 75%
    20:00 +21°C° 0 mm 2 mps 752 mmHg 80%
    21:00 +19°C° 0 mm 2 mps 753 mmHg 85%
    22:00 +18°C° 0 mm 2 mps 753 mmHg 91%
    23:00 +17°C° 0 mm 2 mps 753 mmHg 92%

    Tomorrow, 24 July, Tuesday

    Time Temperature Precipitation Wind Pressure Humidity
    00:00 +17°C° 0 mm 2 mps 753 mmHg 92%
    01:00 +17°C° 0 mm 2 mps 753 mmHg 93%
    02:00 +17°C° 0 mm 3 mps 753 mmHg 94%
    03:00 +16°C° 0 mm 3 mps 753 mmHg 94%
    04:00 +16°C° 0 mm 3 mps 753 mmHg 95%
    05:00 +18°C° 0 mm 3 mps 753 mmHg 90%
    06:00 +20°C° 0 mm 3 mps 753 mmHg 85%
    07:00 +22°C° 0 mm 3 mps 753 mmHg 81%
    08:00 +24°C° 0 mm 3 mps 753 mmHg 74%
    09:00 +25°C° 0 mm 3 mps 753 mmHg 67%
    10:00 +27°C° 0 mm 3 mps 753 mmHg 61%
    11:00 +27°C° 0 mm 4 mps 753 mmHg 60%
    12:00 +27°C° 0 mm 4 mps 753 mmHg 59%
    13:00 +28°C° 0 mm 4 mps 753 mmHg 58%
    14:00 +27°C° 0 mm 4 mps 753 mmHg 60%
    15:00 +27°C° 0 mm 4 mps 752 mmHg 62%
    16:00 +27°C° 0 mm 4 mps 752 mmHg 63%
    17:00 +26°C° 0 mm 3 mps 752 mmHg 69%
    18:00 +25°C° 0 mm 3 mps 752 mmHg 74%
    19:00 +23°C° 0 mm 2 mps 752 mmHg 79%
    20:00 +21°C° 0 mm 2 mps 752 mmHg 84%
    21:00 +21°C° 0 mm 1 mps 753 mmHg 89%
    22:00 +20°C° 0 mm 1 mps 753 mmHg 94%
    23:00 +20°C° 0 mm 1 mps 753 mmHg 95%

    Day after tomorrow, 25 July, Wednesday

    Time Temperature Precipitation Wind Pressure Humidity
    00:00 +19°C° 0 mm 1 mps 753 mmHg 95%
    01:00 +19°C° 0 mm 1 mps 753 mmHg 95%
    02:00 +19°C° 0.1 mm 1 mps 753 mmHg 95%
    03:00 +19°C° 0.1 mm 1 mps 753 mmHg 95%
    04:00 +19°C° 0.1 mm 1 mps 753 mmHg 95%
    05:00 +21°C° 0 mm 1 mps 753 mmHg 90%
    06:00 +22°C° 0 mm 1 mps 753 mmHg 84%
    07:00 +24°C° 0 mm 1 mps 753 mmHg 78%
    08:00 +25°C° 0.2 mm 2 mps 753 mmHg 70%
    09:00 +26°C° 0.2 mm 2 mps 753 mmHg 62%
    10:00 +28°C° 0.2 mm 2 mps 753 mmHg 54%
    11:00 +28°C° 0 mm 3 mps 753 mmHg 51%
    12:00 +29°C° 0 mm 3 mps 753 mmHg 49%
    13:00 +29°C° 0 mm 4 mps 753 mmHg 46%
    14:00 +29°C° 0 mm 4 mps 753 mmHg 48%
    15:00 +28°C° 0 mm 4 mps 753 mmHg 49%
    16:00 +28°C° 0 mm 4 mps 753 mmHg 51%
    17:00 +26°C° 0 mm 4 mps 753 mmHg 58%
    18:00 +25°C° 0 mm 3 mps 753 mmHg 65%
    19:00 +22°C° 0 mm 3 mps 753 mmHg 71%
    20:00 +21°C° 0 mm 3 mps 753 mmHg 77%
    21:00 +20°C° 0 mm 2 mps 753 mmHg 82%
    22:00 +19°C° 0 mm 2 mps 753 mmHg 87%
    23:00 +19°C° 0 mm 2 mps 753 mmHg 87%

    26 July, Thursday

    Time Temperature Precipitation Wind Pressure Humidity
    00:00 +19°C° 0 mm 3 mps 753 mmHg 88%
    01:00 +18°C° 0 mm 3 mps 753 mmHg 89%
    02:00 +18°C° 0 mm 3 mps 753 mmHg 90%
    03:00 +18°C° 0 mm 3 mps 753 mmHg 91%
    04:00 +18°C° 0 mm 3 mps 753 mmHg 92%
    05:00 +20°C° 0 mm 3 mps 754 mmHg 86%
    06:00 +21°C° 0 mm 4 mps 754 mmHg 80%
    07:00 +23°C° 0 mm 4 mps 754 mmHg 74%
    08:00 +25°C° 0 mm 4 mps 754 mmHg 69%
    09:00 +26°C° 0 mm 4 mps 754 mmHg 64%
    10:00 +28°C° 0 mm 5 mps 754 mmHg 59%
    11:00 +28°C° 0 mm 5 mps 754 mmHg 58%
    12:00 +28°C° 0 mm 5 mps 754 mmHg 57%
    13:00 +29°C° 0 mm 5 mps 754 mmHg 56%
    14:00 +28°C° 0 mm 5 mps 754 mmHg 58%
    15:00 +28°C° 0 mm 5 mps 754 mmHg 60%
    16:00 +28°C° 0 mm 5 mps 754 mmHg 62%
    17:00 +27°C° 0 mm 5 mps 754 mmHg 67%
    18:00 +25°C° 0 mm 5 mps 754 mmHg 73%
    19:00 +23°C° 0 mm 4 mps 754 mmHg 79%
    20:00 +22°C° 0 mm 4 mps 754 mmHg 84%
    21:00 +21°C° 0 mm 4 mps 754 mmHg 89%
    22:00 +20°C° 0 mm 3 mps 754 mmHg 93%
    23:00 +20°C° 0 mm 3 mps 754 mmHg 94%

    27 July, Friday

    Time Temperature Precipitation Wind Pressure Humidity
    00:00 +20°C° 0 mm 3 mps 754 mmHg 95%
    01:00 +19°C° 0 mm 3 mps 754 mmHg 96%
    02:00 +19°C° 0 mm 3 mps 753 mmHg 97%
    03:00 +19°C° 0 mm 3 mps 753 mmHg 97%
    04:00 +20°C° 0 mm 3 mps 753 mmHg 98%
    05:00 +21°C° 0 mm 4 mps 753 mmHg 94%
    06:00 +22°C° 0 mm 4 mps 753 mmHg 90%
    07:00 +23°C° 0 mm 4 mps 753 mmHg 86%
    08:00 +26°C° 0.3 mm 4 mps 753 mmHg 79%
    09:00 +27°C° 0.3 mm 4 mps 753 mmHg 73%
    10:00 +28°C° 0.3 mm 5 mps 753 mmHg 67%
    11:00 +29°C° 0.2 mm 4 mps 753 mmHg 64%
    12:00 +29°C° 0.2 mm 4 mps 753 mmHg 61%
    13:00 +30°C° 0.2 mm 4 mps 753 mmHg 58%
    14:00 +29°C° 0.1 mm 4 mps 753 mmHg 59%
    15:00 +29°C° 0.1 mm 4 mps 753 mmHg 60%
    16:00 +29°C° 0.1 mm 5 mps 752 mmHg 61%
    17:00 +27°C° 0 mm 4 mps 752 mmHg 66%
    18:00 +26°C° 0 mm 4 mps 752 mmHg 72%
    19:00 +25°C° 0 mm 4 mps 752 mmHg 77%
    20:00 +24°C° 0 mm 3 mps 752 mmHg 82%
    21:00 +22°C° 0 mm 3 mps 752 mmHg 87%
    22:00 +21°C° 0 mm 2 mps 752 mmHg 93%
    23:00 +20°C° 0 mm 2 mps 752 mmHg 93%

    28 July, Saturday

    Time Temperature Precipitation Wind Pressure Humidity
    00:00 +20°C° 0 mm 2 mps 751 mmHg 94%
    01:00 +20°C° 0 mm 2 mps 751 mmHg 94%
    02:00 +21°C° 0 mm 1 mps 751 mmHg 94%
    03:00 +21°C° 0 mm 1 mps 751 mmHg 95%
    04:00 +20°C° 0 mm 1 mps 751 mmHg 95%
    05:00 +22°C° 0 mm 1 mps 751 mmHg 89%
    06:00 +24°C° 0 mm 1 mps 751 mmHg 82%
    07:00 +25°C° 0 mm 1 mps 751 mmHg 76%
    08:00 +27°C° 0 mm 1 mps 751 mmHg 69%
    09:00 +29°C° 0 mm 1 mps 751 mmHg 63%
    10:00 +31°C° 0 mm 1 mps 752 mmHg 56%
    11:00 +31°C° 0 mm 1 mps 752 mmHg 54%
    12:00 +32°C° 0 mm 2 mps 752 mmHg 52%
    13:00 +32°C° 0 mm 2 mps 752 mmHg 50%
    14:00 +32°C° 0 mm 2 mps 752 mmHg 53%
    15:00 +31°C° 0 mm 3 mps 752 mmHg 56%
    16:00 +30°C° 0 mm 3 mps 752 mmHg 60%
    17:00 +29°C° 0.4 mm 3 mps 752 mmHg 66%
    18:00 +28°C° 0.4 mm 3 mps 752 mmHg 73%
    19:00 +26°C° 0.4 mm 3 mps 752 mmHg 79%
    20:00 +26°C° 0.2 mm 2 mps 752 mmHg 82%
    21:00 +25°C° 0.2 mm 2 mps 753 mmHg 85%
    22:00 +24°C° 0.2 mm 2 mps 753 mmHg 88%
    23:00 +24°C° 0 mm 2 mps 753 mmHg 88%
    Show more